Location: Unspecified
(0.0000°N, 0.0000°E)
Time: 17:30:25
(UTC+00:00)

Envisat - Pass Details

Date: 24 September 2022
Orbit: 764 x 765 km, 98.2° (Epoch: 26 September)

Event Time Altitude Azimuth Distance (km) Brightness Sun altitude
Rises 03:07:33 0° 37° (NE) 3,214 6.6 -41.2°
Reaches altitude 10° 03:10:19 10° 52° (NE) 2,292 5.9 -40.5°
Enters shadow 03:12:27 19° 75° (ENE) 1,769 5.4 -39.9°
